Regional Weather Roundup
Issued by NWS

Home | Current Version | Previous Version | Graphics & Text | Print | Product List | Glossary Off
Versions: 1 2 3 4 5 6 7 8 9 10 11 12 13 14 15 16 17 18 19 20 21 22 23 24 25 26 27 28 29 30 31 32 33 34 35 36 37 38 39 40 41 42 43 44 45 46 47 48 49 50

000
ASUS43 KIND 261309
RWRIN

WEATHER ROUNDUP FOR INDIANA
NATIONAL WEATHER SERVICE INDIANAPOLIS IN
900 AM EDT SAT JUL 26 2014

NOTE: "FAIR" INDICATES FEW OR NO CLOUDS BELOW 12,000 FEET WITH NO
SIGNIFICANT WEATHER AND/OR OBSTRUCTIONS TO VISIBILITY.

* - STATION DOES NOT REPORT WEATHER SUCH AS PRECIPITATION OR FOG.

+ - STATION NOT QUALITY CONTROLLED BY THE NATIONAL WEATHER SERVICE.
    USE DATA WITH CAUTION...ESPECIALLY DEWPOINT AND RELATIVE
    HUMIDITY OBSERVATIONS.

INZ001>003-010>013-019-020-261400-
NORTHWEST INDIANA

CITY           SKY/WX    TMP DP  RH WIND       PRES   REMARKS
GARY /AIRPORT/ CLOUDY    72  63  73 S5        29.87R
KNOX *+        PTSUNNY   68  61  76 SW9       29.88S
LA PORTE +     PTSUNNY   66  61  83 S5        29.90R
MICHIGAN CITY+ PTSUNNY   68  59  73 S5        29.88S
MONTICELLO +   CLOUDY    69  63  81 SW10G16   29.89F
RENSSELAER +   LGT RAIN  68  64  88 S5        29.89R
VALPARAISO     PTSUNNY   68  62  81 S9        29.89R

$$

LMZ046-743>745-261400-
SOUTHERN LAKE MICHIGAN

STATION/POSITION TIME  TEMP WIND        PRES
                       AIR  DIR/SP/G
                 (UTC) (F)  (DEG/KT/KT) (MB)
MICHIGAN CITY    1300   68  170/  7/ 10   N/A

$$

INZ004-005-014>016-021>024-261400-
NORTH CENTRAL INDIANA

CITY           SKY/WX    TMP DP  RH WIND       PRES   REMARKS
ELKHART        SUNNY     66  61  82 S3        29.91R
GOSHEN         MOSUNNY   67  62  84 S7        29.90S
LOGANSPORT +   MOSUNNY   70  61  73 SW7       29.91S
PERU/GRISSOM   MOSUNNY   72  65  80 SW14      29.91S
ROCHESTER +    SUNNY     72  63  73 SW7       29.91R
SOUTH BEND     SUNNY     69  60  73 S7        29.90R
WARSAW +       MOSUNNY   68  61  77 S3        29.91S

$$

INZ006>009-017-018-025>027-261400-
NORTHEAST INDIANA

CITY           SKY/WX    TMP DP  RH WIND       PRES   REMARKS
ANGOLA *+      SUNNY     66  57  72 S6        29.92S
AUBURN +       SUNNY     68  59  73 CALM      29.93S
FORT WAYNE     PTSUNNY   68  62  81 S6        29.93R
HUNTINGTON +   SUNNY     68  62  82 CALM      29.92S

$$

INZ028-029-035-036-043>045-051>053-261400-
WEST CENTRAL INDIANA

CITY           SKY/WX    TMP DP  RH WIND       PRES   REMARKS
GREENCASTLE +  LGT RAIN  66  61  82 SE3       29.97R
LAFAYETTE      PTSUNNY   68  64  87 S6        29.89F
TERRE HAUTE    PTSUNNY   70  62  76 S8        29.93R

$$

INZ030>032-037>040-046>048-054>057-064-065-261400-
CENTRAL INDIANA

CITY           SKY/WX    TMP DP  RH WIND       PRES   REMARKS
ANDERSON       PTSUNNY   70  59  68 S12       29.96
CP ATTERBURY + CLOUDY    66  61  82 SE6       29.95F
COLUMBUS       CLOUDY    66  63  88 S5        29.97R
FRANKFORT +    CLOUDY    70  63  78 S7        29.93
INDIANAPOLIS   TSTM      67  62  84 SW8       29.94R
-EAGLE CREEK   CLOUDY    66  63  90 SE5       29.93F
KOKOMO *+      PTSUNNY   72  63  73 SW13      29.92S
MARION +       CLOUDY    70  60  70 SW7       29.93S
MT COMFORT *+  CLOUDY    68  68 100 SW7       29.96R
SHELBYVILLE    CLOUDY    69  62  78 SE5       29.95R
ZIONSVILLE +   CLOUDY    67  62  84 S9        29.94F

$$

INZ033-034-041-042-049-050-058-059-261400-
EAST CENTRAL INDIANA

CITY           SKY/WX    TMP DP  RH WIND       PRES   REMARKS
MUNCIE         PTSUNNY   72  60  66 SW10      29.93S

$$

INZ060-061-067>069-081>083-085>088-261400-
SOUTHWEST INDIANA

CITY           SKY/WX    TMP DP  RH WIND       PRES   REMARKS
EVANSVILLE     MOSUNNY   73  63  70 SW12      29.97R
HUNTINGBURG *+ SUNNY     70  63  78 SW6       29.98R
WASHINGTON +   MOSUNNY   68  65  88 S7        29.93F

$$

INZ062-063-066-070>080-084-089>092-261400-
SOUTH CENTRAL AND SOUTHEAST INDIANA

CITY           SKY/WX    TMP DP  RH WIND       PRES   REMARKS
BLOOMINGTON    CLOUDY    69  61  75 SW7       29.94F
NORTH VERNON + CLOUDY    68  66  94 S3        29.97

$$



USA.gov is the U.S. government's official web portal to all federal, state and local government web resources and services.